Regional Weather Roundup
Issued by NWS State College, PA

Home | Current Version | Previous Version | Text Only | Print | Product List | Glossary Off
Versions: 1 2 3 4 5 6 7 8 9 10 11 12 13 14 15 16 17 18 19 20 21 22 23 24 25 26 27 28 29 30 31 32 33 34 35 36 37 38 39 40 41 42 43 44 45 46 47 48 49 50

000
ASUS41 KCTP 230610
RWRCTP

REGIONAL WEATHER ROUNDUP
NATIONAL WEATHER SERVICE STATE COLLEGE PA
200 AM EDT MON APR 23 2018

Note: "fair" indicates few or no clouds below 12,000 feet with no
significant weather and/or obstructions to visibility.

* = STATION THAT DOES NOT REPORT PRECIPITATION /E.G. RAIN...SNOW...ETC/
    THUNDER OR FOG.

PAZ002>004-007>009-013>016-020>023-029>032-230700-
WESTERN PENNSYLVANIA

CITY           SKY/WX    TMP DP  RH WIND       PRES   REMARKS
ERIE           FAIR      53  21  28 SE10      30.31S
MEADVILLE      FAIR      49  19  30 E8        30.30S
FRANKLIN*      FAIR      46  20  35 E7        30.32S
NEW CASTLE     FAIR      53  32  44 SE8       30.29S
BEAVER COUNTY  NOT AVBL
BUTLER*        FAIR      51  32  48 E8        30.30S
PITTSBURGH INT FAIR      53  34  48 E9        30.27S
PITTSBURGH     FAIR      52  35  52 SE6       30.28S
INDIANA*       CLEAR     52  32  46 SE9       30.35S
LATROBE        FAIR      54  36  50 E9G17     30.30S HAZE
WASHINGTON CO* FAIR      54  38  54 E10       30.28F
$$

PAZ004>006-010>012-017>019-024>028-033>037-041-042-045-046-049>053-230700-
CENTRAL PENNSYLVANIA

CITY           SKY/WX    TMP DP  RH WIND       PRES   REMARKS
BRADFORD       FAIR      39  19  44 SE3       30.36F
DUBOIS         FAIR      44  23  43 E7        30.33S
CLEARFIELD     FAIR      39  24  55 N3        30.36S
JOHNSTOWN      FAIR      48  34  58 SE7       30.32S
ALTOONA        FAIR      51  33  50 SE3       30.36R
STATE COLLEGE  FAIR      44  24  45 CALM      30.37S
WILLIAMSPORT   FAIR      40  28  62 CALM      30.41R
SELINSGROVE    FAIR      34  30  85 NW5       30.40S
FT INDIANTOWN  FAIR      40  34  80 CALM      30.40R
CAPITAL CITY   FAIR      46  36  68 CALM      30.39S
HARRISBURG     FAIR      49  34  56 E7        30.38F
YORK           FAIR      39  35  86 CALM      30.39F
$$

PAZ038>040-043-044-047-048-054-055-060>062-067>071-230700-
EASTERN PENNSYLVANIA

CITY           SKY/WX    TMP DP  RH WIND       PRES   REMARKS
SCRANTON       FAIR      41  21  44 E7        30.40R
MOUNT POCONO   FAIR      35  19  52 CALM      30.39R
ALLENTOWN      FAIR      40  30  67 W6        30.40R
QUAKERTOWN*    CLEAR     37  34  87 CALM      30.40S
READING        FAIR      43  35  73 N3        30.40R
LANCASTER      FAIR      44  33  65 CALM      30.40R
COATESVILLE    FAIR      46  37  71 W6        30.41S
POTTSTOWN      FAIR      42  31  64 CALM      30.42R
BLUE BELL      FAIR      37  34  87 CALM      30.42S
DOYLESTOWN     FAIR      47  31  53 CALM      30.39S
WILLOW GROVE   NOT AVBL
NORTH PHILA    FAIR      50  36  58 CALM      30.41F
PHILADELPHIA   FAIR      47  39  74 W6        30.41S
$$



USA.gov is the U.S. government's official web portal to all federal, state and local government web resources and services.